FW1504 Weather Reports


time (UTC)temp
C
wind
direction
speed
KPH
gust
KPH
rain 1hr
cm
rain 24hr
cm
rain mn
cm
humidity
%
barometer
mb
20260508084514 13 168 1.6 4.8 0.00 0.00 0.00 78 1012.8
20260508083012 13 168 1.6 3.2 0.00 0.00 0.00 77 1012.9
20260508081512 13 168 0.0 4.8 0.00 0.00 0.00 75 1013.0
20260508080009 13 169 0.0 3.2 0.00 0.00 0.00 75 1013.2
20260508074511 14 168 1.6 4.8 0.00 0.00 0.00 74 1013.2
20260508073005 14 171 1.6 6.4 0.00 0.00 0.00 73 1013.3
20260508071507 14 166 3.2 8.0 0.00 0.00 0.00 72 1013.7
20260508070100 15 162 3.2 8.0 0.00 0.00 0.00 71 1013.8
20260508064558 15 172 1.6 8.0 0.00 0.00 0.00 71 1014.0
20260508063104 15 174 1.6 6.4 0.00 0.00 0.00 69 1014.2
20260508061553 15 360 3.2 6.4 0.00 0.00 0.00 68 1014.2
20260508060050 15 360 3.2 12.9 0.00 0.00 0.00 67 1014.3
20260508054551 16 360 4.8 9.7 0.00 0.00 0.00 65 1014.2
20260508053048 16 178 6.4 9.7 0.00 0.00 0.00 62 1014.2
20260508051543 16 171 6.4 11.3 0.00 0.00 0.00 60 1014.4
20260508050042 16 178 4.8 12.9 0.00 0.00 0.00 58 1014.4
20260508044540 17 163 4.8 11.3 0.00 0.00 0.00 58 1014.5
20260508043053 17 167 4.8 9.7 0.00 0.00 0.00 56 1014.5
20260508041548 17 158 3.2 11.3 0.00 0.00 0.00 56 1014.5
20260508040040 17 161 3.2 8.0 0.00 0.00 0.00 56 1014.6
20260508034538 17 161 3.2 8.0 0.00 0.00 0.00 55 1014.6
20260508033038 17 161 3.2 8.0 0.00 0.00 0.00 54 1014.5
20260508031537 18 161 1.6 8.0 0.00 0.00 0.00 53 1014.6
20260508030041 18 159 3.2 9.7 0.00 0.00 0.00 52 1014.5
20260508024540 18 159 3.2 9.7 0.00 0.00 0.00 51 1014.5
20260508023035 19 164 1.6 9.7 0.00 0.00 0.00 50 1014.4
20260508021540 19 159 1.6 8.0 0.00 0.00 0.00 49 1014.3
20260508020044 20 163 1.6 4.8 0.00 0.00 0.00 47 1014.1
20260508014534 20 163 1.6 4.8 0.00 0.00 0.00 45 1014.1
20260508013039 21 163 1.6 4.8 0.00 0.00 0.00 43 1013.8
20260508011533 21 360 3.2 6.4 0.00 0.00 0.00 39 1014.0
20260508010035 22 360 0.0 4.8 0.00 0.00 0.00 38 1014.0
20260508004533 22 360 3.2 6.4 0.00 0.00 0.00 36 1014.0
20260508003031 22 360 1.6 6.4 0.00 0.00 0.00 37 1013.9
20260508001556 22 360 1.6 3.2 0.00 0.00 0.00 36 1013.7
20260508000029 22 360 1.6 6.4 0.00 0.00 0.00 36 1013.6
20260507234533 23 360 1.6 4.8 0.00 0.00 0.00 37 1013.6
20260507233026 23 360 0.0 3.2 0.00 0.00 0.00 36 1014.0
20260507231533 23 360 0.0 3.2 0.00 0.00 0.00 37 1014.0
20260507230026 23 360 1.6 4.8 0.00 0.00 0.00 35 1014.1
20260507224531 23 360 1.6 4.8 0.00 0.00 0.00 36 1014.5
20260507223018 22 360 1.6 4.8 0.00 0.00 0.00 35 1014.5
20260507221516 22 360 1.6 4.8 0.00 0.00 0.00 38 1014.6
20260507220030 22 360 1.6 3.2 0.00 0.00 0.00 38 1014.7
20260507214515 22 360 1.6 4.8 0.00 0.00 0.00 38 1014.7
20260507213013 22 360 0.0 4.8 0.00 0.00 0.00 39 1014.7
20260507211509 22 360 1.6 8.0 0.00 0.00 0.00 37 1014.8
20260507210007 22 360 3.2 8.0 0.00 0.00 0.00 37 1015.3
20260507204505 22 360 1.6 4.8 0.00 0.00 0.00 42 1015.4
20260507203007 22 360 1.6 8.0 0.00 0.00 0.00 40 1015.8
20260507201601 22 360 1.6 9.7 0.00 0.00 0.00 42 1016.1
20260507200109 21 360 1.6 6.4 0.00 0.00 0.00 41 1016.4
20260507194556 21 360 1.6 6.4 0.00 0.00 0.00 42 1016.5
20260507193055 21 360 1.6 6.4 0.00 0.00 0.00 41 1016.8
20260507191557 21 360 3.2 6.4 0.00 0.00 0.00 42 1017.0
20260507190056 21 360 1.6 6.4 0.00 0.00 0.00 43 1017.1
20260507184552 20 360 1.6 12.9 0.00 0.00 0.00 43 1017.4
20260507183047 20 360 1.6 9.7 0.00 0.00 0.00 49 1017.6
20260507181547 20 204 3.2 11.3 0.00 0.00 0.00 48 1018.2
20260507180043 20 202 3.2 4.8 0.00 0.00 0.00 44 1018.4
20260507174547 21 360 1.6 8.0 0.00 0.00 0.00 48 1018.7
20260507173039 20 360 1.6 9.7 0.00 0.00 0.00 49 1018.9
20260507171538 19 213 0.0 4.8 0.00 0.00 0.00 52 1019.3
20260507170043 19 234 3.2 11.3 0.00 0.00 0.00 47 1019.6
20260507164534 19 159 1.6 9.7 0.00 0.00 0.00 55 1019.8
20260507163034 19 360 3.2 8.0 0.00 0.00 0.00 46 1019.8
20260507161530 19 360 1.6 6.4 0.00 0.00 0.00 56 1019.9
20260507160033 19 360 3.2 8.0 0.00 0.00 0.00 53 1020.1
20260507154525 18 360 0.0 4.8 0.00 0.00 0.00 48 1020.1
20260507153022 18 173 1.6 8.0 0.00 0.00 0.00 52 1020.2
20260507151516 18 164 3.2 6.4 0.00 0.00 0.00 51 1020.7
20260507150013 18 163 1.6 9.7 0.00 0.00 0.00 51 1020.9
20260507144511 17 360 1.6 6.4 0.00 0.00 0.00 51 1020.9
20260507143008 17 157 0.0 8.0 0.00 0.00 0.00 53 1021.1
20260507141504 17 156 0.0 3.2 0.00 0.00 0.00 53 1021.2
20260507140103 16 360 0.0 1.6 0.00 0.00 0.00 58 1021.3
20260507134557 15 142 0.0 1.6 0.00 0.00 0.00 62 1021.4
20260507133055 13 360 0.0 1.6 0.00 0.00 0.00 67 1021.4
20260507131558 11 143 0.0 0.0 0.00 0.00 0.00 74 1021.3
20260507130053 10 360 0.0 0.0 0.00 0.00 0.00 79 1021.3
20260507124538 8 142 0.0 0.0 0.00 0.00 0.00 82 1021.2
20260507123034 8 142 0.0 0.0 0.00 0.00 0.00 82 1021.0
20260507121531 7 142 0.0 0.0 0.00 0.00 0.00 82 1020.8
20260507120037 7 138 0.0 0.0 0.00 0.00 0.00 81 1020.7
20260507114525 8 136 0.0 0.0 0.00 0.00 0.00 81 1020.4
20260507113024 8 124 0.0 0.0 0.00 0.00 0.00 81 1020.4
20260507111524 8 124 0.0 0.0 0.00 0.00 0.00 80 1020.3
20260507110022 8 124 0.0 0.0 0.00 0.00 0.00 80 1020.2
20260507104521 8 124 0.0 0.0 0.00 0.00 0.00 80 1020.3
20260507103020 8 124 0.0 0.0 0.00 0.00 0.00 80 1020.3
20260507101519 8 124 0.0 0.0 0.00 0.00 0.00 80 1019.9
20260507100025 8 124 0.0 0.0 0.00 0.00 0.00 79 1019.8
20260507094517 9 124 0.0 0.0 0.00 0.00 0.00 80 1019.8
20260507093017 8 124 0.0 0.0 0.00 0.00 0.00 82 1019.8
20260507091517 8 124 0.0 0.0 0.00 0.00 0.00 82 1019.4
20260507090021 8 124 0.0 0.0 0.00 0.00 0.00 82 1019.4